This is the latest recevied weather packets stored in our database for station/object KB1RMA-4. If no packets are shown the sender has not sent any weather packets the latest 10 day(s).
| Time | Temp. | Humidity | Pressure | Rain* | Wind** | Luminosity | Snow |
|---|---|---|---|---|---|---|---|
| 1787832770 | 18.89° C | 83% | 1018.4 hPa | 0 mm | - | 69 W/m² | - |
| 1787832470 | 18.89° C | 84% | 1018.3 hPa | 0 mm | - | 62 W/m² | - |
| 1787832169 | 18.89° C | 85% | 1018.5 hPa | 0 mm | - | 52 W/m² | - |
| 1787831867 | 18.33° C | 86% | 1018.2 hPa | 0 mm | - | 41 W/m² | - |
| 1787831563 | 18.33° C | 88% | 1018.5 hPa | 0 mm | - | 45 W/m² | - |
| 1787831261 | 18.33° C | 88% | 1018.6 hPa | 0 mm | - | 47 W/m² | - |
| 1787830958 | 17.78° C | 88% | 1018.7 hPa | 0 mm | - | 47 W/m² | - |
| 1787830657 | 17.78° C | 88% | 1018.6 hPa | 0 mm | - | 43 W/m² | - |
| 1787830351 | 17.78° C | 89% | 1018.4 hPa | 0 mm | - | 41 W/m² | - |
| 1787830045 | 17.78° C | 89% | 1018.6 hPa | 0 mm | - | 42 W/m² | - |
| 1787829744 | 17.22° C | 89% | 1018.5 hPa | 0 mm | - | 34 W/m² | - |
| 1787829440 | 17.22° C | 89% | 1018.3 hPa | 0 mm | - | 28 W/m² | - |
| 1787829136 | 17.22° C | 89% | 1018.3 hPa | 0 mm | - | 30 W/m² | - |
| 1787828831 | 17.22° C | 89% | 1018.3 hPa | 0 mm | - | 30 W/m² | - |
| 1787828529 | 17.22° C | 89% | 1018.1 hPa | 0 mm | - | 28 W/m² | - |
| 1787828227 | 17.22° C | 89% | 1018.2 hPa | 0 mm | - | 23 W/m² | - |
| 1787827926 | 17.22° C | 89% | 1018.5 hPa | 0 mm | - | 23 W/m² | - |
| 1787827621 | 17.22° C | 89% | 1018.2 hPa | 0 mm | - | 23 W/m² | - |
| 1787827315 | 17.22° C | 89% | 1018.1 hPa | 0 mm | - | 23 W/m² | - |
| 1787827014 | 17.22° C | 89% | 1017.9 hPa | 0 mm | - | 23 W/m² | - |
| 1787826714 | 17.22° C | 89% | 1018.1 hPa | 0 mm | - | 14 W/m² | - |
| 1787826410 | 17.22° C | 89% | 1018.1 hPa | 0 mm | - | 9 W/m² | - |
| 1787826107 | 17.22° C | 88% | 1018 hPa | 0 mm | - | 6 W/m² | - |
| 1787825804 | 17.22° C | 88% | 1018 hPa | 0 mm | - | 3 W/m² | - |
| 1787825503 | 17.22° C | 88% | 1018 hPa | 0 mm | - | 2 W/m² | - |
* Rain latest hour (hover to see other rain measurements)
** Current wind speed in m/s (hover to see current wind gust speed)